Starlink 32583

operational
NORAD ID: 61955 Int'l Des: 2024-209 Owner: SPXS Country: US Constellation: starlink
LEOCIRCULAR

About Starlink 32583

Description loading...

Live Position

Loading 3D Globe...

Upcoming Passes

Altitude History

Altitude vs Time

uPlot chart will show altitude changes over time

Two-Line Element Set

1 61955U 24209S 25312.52259801 .00049993 00000-0 16889-2 0 9996
2 61955 53.1583 345.3539 0001468 93.7885 266.3283 15.30197264 56362
Epoch: Nov 8, 2025 • Age: 41 hours

Current Status

Altitude 474.8 km
Velocity 7.63 km/s
Sub-Earth Point 16.90°N, 139.93°W
Launch Date Nov 14, 2024
Age 0.9 years
Type internet

Technical Details

Classification Payload
Mass 730.00 kg
Dry Mass 700.00 kg
Total Mass 730.00 kg
Length 0.30 m
Diameter 4.10 m
Span 29.00 m
Shape Box + pan
Manufacturer SPXS
Bus Type Starlink V2M
Phase Status In Orbit
Owner/State SPXS/US

Large Constellations

Loading constellations...